FW2541 Weather Reports


time (UTC)temp
C
wind
direction
speed
KPH
gust
KPH
rain 1hr
cm
rain 24hr
cm
rain mn
cm
humidity
%
barometer
mb
20260507170016 17 0 8.0 17.7 0.00 0.46 0.30 24 1007.1
20260507163017 17 0 9.7 25.7 0.00 0.46 0.30 30 1007.6
20260507160017 16 0 6.4 19.3 0.00 0.46 0.30 38 1007.9
20260507153016 15 0 8.0 16.1 0.00 0.46 0.30 42 1008.1
20260507150016 15 0 4.8 14.5 0.00 0.46 0.30 45 1008.1
20260507143016 14 0 4.8 12.9 0.00 0.46 0.30 46 1008.6
20260507140016 13 0 4.8 12.9 0.00 0.46 0.30 49 1008.6
20260507133016 12 0 6.4 17.7 0.00 0.46 0.30 53 1008.7
20260507130016 11 0 4.8 12.9 0.00 0.46 0.30 59 1008.9
20260507123016 10 0 3.2 9.7 0.00 0.46 0.30 59 1009.1
20260507120016 10 0 1.6 8.0 0.00 0.46 0.30 59 1008.7
20260507113016 9 0.0 8.0 0.00 0.46 0.30 58 1008.8
20260507110016 9 0 1.6 4.8 0.00 0.46 0.30 58 1008.5
20260507103036 9 0 1.6 6.4 0.08 0.46 0.30 58 1008.7
20260507100016 9 0 1.6 6.4 0.15 0.46 0.30 57 1008.5
20260507093016 9 0 3.2 9.7 0.15 0.38 0.23 57 1008.1
20260507090016 10 0 1.6 9.7 0.13 0.30 0.15 56 1008.4
20260507083016 11 0 1.6 8.0 0.05 0.23 0.08 55 1008.1
20260507080016 11 0 4.8 20.9 0.00 0.18 0.03 53 1008.3
20260507073015 12 0 4.8 12.9 0.00 0.18 0.03 53 1007.7
20260507070015 12 0 3.2 12.9 0.00 0.18 0.03 54 1007.0
20260507063016 13 0 3.2 9.7 0.00 0.18 0.03 55 1007.1
20260507060015 13 0 4.8 12.9 0.00 0.18 0.03 56 1007.0
20260507053036 13 0 4.8 12.9 0.00 0.18 0.03 59 1007.3
20260507050036 14 0 3.2 12.9 0.03 0.18 0.03 60 1007.1
20260507043016 15 0 1.6 9.7 0.03 0.18 0.03 60 1006.9
20260507040016 15 0 6.4 16.1 0.00 0.15 0.15 60 1007.2
20260507033016 15 0 8.0 20.9 0.00 0.15 0.15 60 1007.0
20260507030016 15 0 6.4 19.3 0.00 0.15 0.15 60 1006.6
20260507023015 15 0 6.4 19.3 0.00 0.15 0.15 60 1006.8
20260507020040 15 0 6.4 17.7 0.00 0.15 0.15 60 1006.9
20260507013015 14 0 8.0 17.7 0.00 0.15 0.15 60 1007.0
20260507010015 14 0 8.0 22.5 0.00 0.15 0.15 59 1007.2
20260507003015 14 0 8.0 17.7 0.03 0.15 0.15 59 1007.1
20260507000015 14 0 8.0 22.5 0.03 0.15 0.15 58 1006.7
20260506233015 15 0 8.0 19.3 0.00 0.13 0.13 58 1006.7
20260506230015 15 0 8.0 22.5 0.03 0.13 0.13 58 1006.7
20260506223015 15 0 8.0 20.9 0.05 0.13 0.13 58 1007.0
20260506220015 16 0 8.0 22.5 0.05 0.10 0.10 58 1007.2
20260506213015 16 0 11.3 24.1 0.03 0.08 0.08 58 1007.6
20260506210035 16 0 12.9 29.0 0.00 0.05 0.05 58 1007.5
20260506203015 16 0 11.3 30.6 0.05 0.05 0.05 57 1007.8
20260506200017 17 0 8.0 20.9 0.05 0.05 0.05 54 1007.6
20260506193017 18 0 9.7 24.1 0.00 0.00 0.00 50 1007.9
20260506190019 20 0 11.3 25.7 0.00 0.00 0.00 46 1007.9
20260506183017 21 0 12.9 35.4 0.00 0.00 0.00 44 1008.0
20260506180017 22 0 14.5 33.8 0.00 0.00 0.00 41 1008.1
20260506173017 22 0 14.5 43.5 0.00 0.00 0.00 40 1008.7